• In Russia
  • List of Countries
  • For 7 days
  • Water Temperature
  • Weather Map
  • Weather Widgets
  • user-avatar
    Login

    Hourly Weather Megri

    Today, 31 March, Tuesday

    Time Temperature Precipitation Wind Pressure Humidity
    00:00 +3°C° 0.2 mm 2 mps 614 mmHg 83%
    01:00 +3°C° 0 mm 2 mps 614 mmHg 84%
    02:00 +2°C° 0 mm 2 mps 614 mmHg 84%
    03:00 +2°C° 0 mm 2 mps 614 mmHg 83%
    04:00 +2°C° 0 mm 2 mps 615 mmHg 84%
    05:00 +2°C° 0 mm 2 mps 615 mmHg 84%
    06:00 +2°C° 0 mm 2 mps 616 mmHg 85%
    07:00 +3°C° 0 mm 2 mps 616 mmHg 77%
    08:00 +3°C° 0 mm 3 mps 617 mmHg 70%
    09:00 +4°C° 0 mm 3 mps 618 mmHg 63%
    10:00 +5°C° 0 mm 4 mps 618 mmHg 59%
    11:00 +6°C° 0 mm 4 mps 618 mmHg 54%
    12:00 +7°C° 0 mm 5 mps 618 mmHg 50%
    13:00 +8°C° 0 mm 5 mps 618 mmHg 48%
    14:00 +8°C° 0 mm 5 mps 618 mmHg 46%
    15:00 +9°C° 0 mm 5 mps 618 mmHg 44%
    16:00 +8°C° 0 mm 4 mps 618 mmHg 47%
    17:00 +9°C° 0 mm 3 mps 618 mmHg 49%
    18:00 +8°C° 0 mm 3 mps 618 mmHg 52%
    19:00 +7°C° 0 mm 3 mps 618 mmHg 57%
    20:00 +6°C° 0 mm 2 mps 618 mmHg 63%
    21:00 +5°C° 0 mm 2 mps 619 mmHg 68%
    22:00 +4°C° 0 mm 3 mps 618 mmHg 71%
    23:00 +4°C° 0 mm 3 mps 618 mmHg 74%

    Tomorrow, 1 April, Wednesday

    Time Temperature Precipitation Wind Pressure Humidity
    00:00 +3°C° 0 mm 3 mps 618 mmHg 77%
    01:00 +3°C° 0 mm 3 mps 618 mmHg 79%
    02:00 +3°C° 0 mm 3 mps 618 mmHg 81%
    03:00 +4°C° 0 mm 2 mps 618 mmHg 83%
    04:00 +4°C° 0 mm 2 mps 618 mmHg 84%
    05:00 +3°C° 0 mm 2 mps 618 mmHg 85%
    06:00 +3°C° 0 mm 2 mps 618 mmHg 86%
    07:00 +5°C° 0 mm 2 mps 618 mmHg 79%
    08:00 +5°C° 0 mm 3 mps 618 mmHg 73%
    09:00 +7°C° 0 mm 3 mps 619 mmHg 66%
    10:00 +8°C° 0 mm 3 mps 619 mmHg 65%
    11:00 +8°C° 0 mm 3 mps 618 mmHg 65%
    12:00 +9°C° 0 mm 3 mps 618 mmHg 64%
    13:00 +8°C° 0.4 mm 3 mps 618 mmHg 69%
    14:00 +8°C° 0.4 mm 2 mps 617 mmHg 75%
    15:00 +7°C° 0.4 mm 2 mps 617 mmHg 80%
    16:00 +7°C° 0.3 mm 2 mps 616 mmHg 80%
    17:00 +7°C° 0.3 mm 2 mps 616 mmHg 81%
    18:00 +7°C° 0.3 mm 2 mps 616 mmHg 81%
    19:00 +7°C° 0.3 mm 2 mps 616 mmHg 83%
    20:00 +6°C° 0.3 mm 2 mps 616 mmHg 85%
    21:00 +6°C° 0.3 mm 2 mps 615 mmHg 87%
    22:00 +6°C° 0.1 mm 2 mps 615 mmHg 87%
    23:00 +6°C° 0.1 mm 2 mps 615 mmHg 86%

    Day after tomorrow, 2 April, Thursday

    Time Temperature Precipitation Wind Pressure Humidity
    00:00 +6°C° 0.1 mm 2 mps 614 mmHg 86%
    01:00 +5°C° 0.3 mm 2 mps 614 mmHg 87%
    02:00 +4°C° 0.3 mm 3 mps 614 mmHg 88%
    03:00 +4°C° 0.3 mm 3 mps 613 mmHg 88%
    04:00 +4°C° 0.2 mm 3 mps 614 mmHg 88%
    05:00 +4°C° 0.2 mm 4 mps 614 mmHg 88%
    06:00 +4°C° 0.2 mm 4 mps 614 mmHg 88%
    07:00 +4°C° 0.1 mm 4 mps 615 mmHg 83%
    08:00 +5°C° 0.1 mm 4 mps 615 mmHg 79%
    09:00 +6°C° 0.1 mm 5 mps 616 mmHg 74%
    10:00 +7°C° 0.1 mm 5 mps 617 mmHg 68%
    11:00 +8°C° 0.1 mm 5 mps 617 mmHg 62%
    12:00 +9°C° 0.1 mm 5 mps 618 mmHg 56%
    13:00 +9°C° 0.1 mm 5 mps 618 mmHg 54%
    14:00 +10°C° 0.1 mm 5 mps 618 mmHg 52%
    15:00 +10°C° 0.1 mm 5 mps 618 mmHg 50%
    16:00 +11°C° 0.2 mm 4 mps 618 mmHg 53%
    17:00 +10°C° 0.2 mm 4 mps 618 mmHg 57%
    18:00 +9°C° 0.2 mm 3 mps 618 mmHg 61%
    19:00 +8°C° 0.7 mm 2 mps 618 mmHg 68%
    20:00 +7°C° 0.7 mm 2 mps 618 mmHg 74%
    21:00 +6°C° 0.7 mm 2 mps 618 mmHg 81%
    22:00 +7°C° 0.1 mm 1 mps 618 mmHg 80%
    23:00 +7°C° 0.1 mm 1 mps 618 mmHg 80%

    3 April, Friday

    Time Temperature Precipitation Wind Pressure Humidity
    00:00 +7°C° 0.1 mm 1 mps 618 mmHg 79%
    01:00 +6°C° 0 mm 1 mps 618 mmHg 81%
    02:00 +6°C° 0 mm 1 mps 617 mmHg 83%
    03:00 +5°C° 0 mm 2 mps 617 mmHg 85%
    04:00 +5°C° 0 mm 1 mps 617 mmHg 86%
    05:00 +5°C° 0 mm 1 mps 617 mmHg 87%
    06:00 +5°C° 0 mm 1 mps 617 mmHg 89%
    07:00 +5°C° 0 mm 2 mps 618 mmHg 82%
    08:00 +6°C° 0 mm 2 mps 619 mmHg 76%
    09:00 +7°C° 0 mm 2 mps 619 mmHg 70%
    10:00 +8°C° 0.1 mm 2 mps 619 mmHg 65%
    11:00 +9°C° 0.1 mm 2 mps 619 mmHg 60%
    12:00 +10°C° 0.1 mm 3 mps 619 mmHg 55%
    13:00 +11°C° 0.1 mm 3 mps 619 mmHg 50%
    14:00 +11°C° 0.1 mm 4 mps 619 mmHg 45%
    15:00 +12°C° 0.1 mm 4 mps 619 mmHg 41%
    16:00 +11°C° 0.1 mm 3 mps 619 mmHg 45%
    17:00 +10°C° 0.1 mm 3 mps 619 mmHg 49%
    18:00 +10°C° 0.1 mm 2 mps 619 mmHg 52%
    19:00 +9°C° 0 mm 2 mps 619 mmHg 58%
    20:00 +8°C° 0 mm 2 mps 619 mmHg 63%
    21:00 +7°C° 0 mm 2 mps 619 mmHg 68%
    22:00 +7°C° 0 mm 2 mps 619 mmHg 71%
    23:00 +7°C° 0 mm 2 mps 619 mmHg 74%

    4 April, Saturday

    Time Temperature Precipitation Wind Pressure Humidity
    00:00 +6°C° 0 mm 2 mps 619 mmHg 76%
    01:00 +6°C° 0 mm 2 mps 618 mmHg 77%
    02:00 +6°C° 0 mm 2 mps 618 mmHg 78%
    03:00 +5°C° 0 mm 2 mps 618 mmHg 79%
    04:00 +4°C° 0 mm 3 mps 618 mmHg 82%
    05:00 +4°C° 0 mm 3 mps 618 mmHg 84%
    06:00 +3°C° 0 mm 3 mps 618 mmHg 87%
    07:00 +4°C° 0 mm 3 mps 619 mmHg 82%
    08:00 +5°C° 0 mm 3 mps 619 mmHg 78%
    09:00 +7°C° 0 mm 3 mps 620 mmHg 73%
    10:00 +8°C° 0.1 mm 3 mps 620 mmHg 68%
    11:00 +8°C° 0.1 mm 4 mps 620 mmHg 63%
    12:00 +10°C° 0.1 mm 4 mps 620 mmHg 57%
    13:00 +10°C° 0.1 mm 4 mps 620 mmHg 52%
    14:00 +10°C° 0.1 mm 5 mps 620 mmHg 46%
    15:00 +12°C° 0.1 mm 5 mps 620 mmHg 40%
    16:00 +9°C° 0.3 mm 5 mps 620 mmHg 46%
    17:00 +8°C° 0.3 mm 5 mps 619 mmHg 51%
    18:00 +7°C° 0.3 mm 6 mps 619 mmHg 57%
    19:00 +6°C° 0.6 mm 4 mps 620 mmHg 65%
    20:00 +5°C° 0.6 mm 3 mps 620 mmHg 72%
    21:00 +6°C° 0.6 mm 1 mps 620 mmHg 80%
    22:00 +6°C° 0.2 mm 1 mps 620 mmHg 81%
    23:00 +6°C° 0.2 mm 1 mps 621 mmHg 82%

    5 April, Sunday

    Time Temperature Precipitation Wind Pressure Humidity
    00:00 +5°C° 0.2 mm 1 mps 621 mmHg 83%
    01:00 +5°C° 0.1 mm 1 mps 621 mmHg 84%
    02:00 +5°C° 0.1 mm 1 mps 621 mmHg 84%
    03:00 +4°C° 0.1 mm 1 mps 621 mmHg 85%
    04:00 +4°C° 0 mm 1 mps 621 mmHg 85%
    05:00 +4°C° 0 mm 1 mps 621 mmHg 84%
    06:00 +4°C° 0 mm 1 mps 622 mmHg 84%
    07:00 +5°C° 0 mm 1 mps 622 mmHg 75%
    08:00 +6°C° 0 mm 2 mps 623 mmHg 66%
    09:00 +7°C° 0 mm 2 mps 623 mmHg 57%
    10:00 +8°C° 0 mm 2 mps 623 mmHg 53%
    11:00 +9°C° 0 mm 2 mps 624 mmHg 49%
    12:00 +9°C° 0 mm 3 mps 624 mmHg 45%
    13:00 +10°C° 0 mm 3 mps 624 mmHg 43%
    14:00 +10°C° 0 mm 3 mps 624 mmHg 42%
    15:00 +11°C° 0 mm 3 mps 624 mmHg 40%
    16:00 +10°C° 0 mm 2 mps 623 mmHg 43%
    17:00 +10°C° 0 mm 2 mps 623 mmHg 46%
    18:00 +10°C° 0 mm 1 mps 623 mmHg 50%
    19:00 +9°C° 0 mm 1 mps 623 mmHg 58%
    20:00 +8°C° 0 mm 1 mps 623 mmHg 66%
    21:00 +7°C° 0 mm 1 mps 623 mmHg 74%
    22:00 +7°C° 0 mm 1 mps 623 mmHg 77%
    23:00 +6°C° 0 mm 1 mps 623 mmHg 80%
    Show more